This demonstration page uses our WeatherBlox Daily Observations layout. Learn more.

Left ArrowRight Arrow

44.8408, -93.29828

Hourly Observations for March 6, 2016

Temp ( °F °C ) Dew Point ( °F °C ) Humidity (%) Winds ( mph kmh ) Pressure ( in mb ) Visibility ( mi km ) Precip ( " mm )
12:53 am 00:53 Partly Cloudy 30 -1.1 26 -3.3 85 85 SSE 12 19 30.09 1019 9 14 0.00 0.00
1:53 am 01:53 Partly Cloudy 30 -1.1 26 -3.3 85 85 SSE 10 17 30.07 1018 9 14 0.00 0.00
2:53 am 02:53 Mostly Clear 30 -1.1 26 -3.3 85 85 SSE 10 17 30.03 1017 9 14 0.00 0.00
3:53 am 03:53 Mostly Clear 31 -0.6 27 -2.8 85 85 SSE 12 19 29.99 1016 10 16 0.00 0.00
4:53 am 04:53 Mostly Clear 31 -0.6 27 -2.8 85 85 SE 10 17 29.96 1015 10 16 0.00 0.00
5:53 am 05:53 Mostly Cloudy 33 0.6 27 -2.8 78 78 SSE 10 17 29.93 1014 10 16 0.00 0.00
6:53 am 06:53 Mostly Cloudy 34 1.1 27 -2.8 76 76 SSE 14 22 29.90 1012 10 16 0.00 0.00
7:53 am 07:53 Mostly Cloudy 37 2.8 28 -2.2 70 70 SSE 17 28 29.86 1011 10 16 0.00 0.00
8:53 am 08:53 Mostly Cloudy 42 5.6 28 -2.2 58 58 S 18 30 29.84 1011 10 16 0.00 0.00
9:53 am 09:53 Mostly Cloudy 47 8.3 28 -2.2 48 48 S 16 26 29.83 1010 10 16 0.00 0.00
10:53 am 10:53 Mostly Cloudy 49 9.4 29 -1.7 46 46 SSE 15 24 29.78 1009 10 16 0.00 0.00
11:53 am 11:53 Mostly Cloudy 53 11.7 31 -0.6 43 43 S 15 24 29.75 1008 10 16 0.00 0.00
12:53 pm 12:53 Mostly Cloudy 56 13.3 34 1.1 44 44 SSW 16 26 29.72 1006 10 16 0.00 0.00
1:53 pm 13:53 Mostly Cloudy 57 13.9 35 1.7 44 44 S 15 24 29.69 1006 10 16 0.00 0.00
2:53 pm 14:53 Mostly Cloudy 58 14.4 37 2.8 46 46 SSW 14 22 29.67 1005 10 16 0.00 0.00
3:53 pm 15:53 Mostly Cloudy 59 15 39 3.9 48 48 S 17 28 29.65 1004 10 16 0.00 0.00
4:53 pm 16:53 Partly Cloudy 56 13.3 40 4.4 55 55 SSE 14 22 29.65 1004 10 16 0.00 0.00
5:53 pm 17:53 Partly Cloudy 53 11.7 40 4.4 61 61 SSE 13 20 29.65 1004 10 16 0.00 0.00
6:53 pm 18:53 Partly Cloudy 50 10 41 5 71 71 SSE 10 17 29.64 1004 10 16 0.00 0.00
7:53 pm 19:53 Mostly Clear 51 10.6 41 5 69 69 SSE 14 22 29.64 1004 10 16 0.00 0.00
8:53 pm 20:53 Mostly Clear 48 8.9 41 5 77 77 SE 8 13 29.64 1004 10 16 0.00 0.00
9:53 pm 21:53 Mostly Clear 45 7.2 39 3.9 80 80 ESE 8 13 29.65 1004 10 16 0.00 0.00
10:53 pm 22:53 Mostly Clear 45 7.2 39 3.9 80 80 ESE 9 15 29.64 1004 10 16 0.00 0.00
11:53 pm 23:53 Mostly Clear 42 5.6 37 2.8 82 82 ESE 8 13 29.63 1003 10 16 0.00 0.00

Powered by AerisWeather